Notices

What's New in latest Release from April 7th, 2021:

- Updated Glossary, including Speed of Maximum Gust, and Total Hourly Precipitation

- Updated national and regional climate services offices contacts and prices information

- Addition of station inventory lists for 1981-2010, 1971-2000, and 1961-1990 Normals.

If you haven't already, please take our survey and provide feedback about our website: https://eccc.sondage-survey.ca/f/LanguageSelection.aspx?s=442ca660-fcf1-47c0-95a9-59707d6fd709

Hourly Data Report for November 15, 2019

VICTORIA UNIVERSITY CS
BRITISH COLUMBIA
Current Station Operator: ECCC - MSC

48°27'25.200" N
123°18'16.600" W
60.10 m
1018598
71783
WYJ

Download Data

Hourly Data (November 2019)
Hourly Data Report for November 15, 2019
TIME
LST
Temp Definition
°C
Dew Point Definition
°C
Rel Hum Definition
%
Precip. Amount Definition
mm

Wind Dir Definition
10's deg

Wind Spd Definition
km/h
Visibility Definition
km
Stn Press Definition
kPa
Hmdx Definition


Wind Chill Definition


Weather Definition


00:00 6.9 6.5 97 0.0 19 2   100.66     LegendNANA
01:00 7.4 7.2 98 0.0 15 1   100.62     LegendNANA
02:00 7.7 7.4 98 0.0 8 1   100.61     LegendNANA
03:00 7.6 7.4 98 0.0 10 2   100.56     LegendNANA
04:00 7.8 7.5 98 0.5 30 4   100.58     LegendNANA
05:00 7.8 7.5 98 1.1 33 1   100.54     LegendNANA
06:00 7.9 7.7 99 0.0 20 2   100.53     LegendNANA
07:00 8.4 8.2 99 0.0 16 1   100.56     LegendNANA
08:00 8.6 8.4 99 1.9 11 3   100.66     LegendNANA
09:00 9.2 9.0 99 1.6 14 4   100.75     LegendNANA
10:00 9.4 9.1 99 1.0 16 8   100.84     LegendNANA
11:00 11.7 11.1 96 0.6 22 5   100.92     LegendNANA
12:00 12.5 10.9 90 0.0 24 9   100.96     LegendNANA
13:00 13.2 10.5 84 0.0 24 14   101.02     LegendNANA
14:00 13.8 9.7 76 0.0 26 12   101.09     LegendNANA
15:00 13.4 9.0 75 0.0 25 11   101.15     LegendNANA
16:00 12.3 8.6 78 0.0 26 10   101.25     LegendNANA
17:00 11.2 8.7 84 0.0 26 7   101.32     LegendNANA
18:00 10.8 8.4 85 0.0 25 9   101.35     LegendNANA
19:00 10.5 8.2 86 0.0 29 5   101.44     LegendNANA
20:00 9.3 7.9 91 0.0 25 6   101.50     LegendNANA
21:00 9.6 7.5 87 0.0 26 5   101.54     LegendNANA
22:00 7.8 7.0 95 0.0 20 2   101.67     LegendNANA
23:00 7.3 6.8 97 0.0 18 3   101.68     LegendNANA

Notes on Data Quality.

Legend

  • E = Estimated
  • M = Missing
  • NA = Not Available*
  • [empty] = Indicates an unobserved value
Date modified: